SORTIE (45264 NORAD) Tracking and Keplerian Element Data

This shows tracking and keplerian element data for the satellite.

Feedback or suggestion? Click here.




ElementValue
Catalog45264
NameSORTIE
Epoch Orbit681
Epoch Day94.10917322
Epoch Year2020
RAAN359.7461
Inclination51.6436
Eccentricity0.0008572
Argument of Perigee89.065
Mean Anonmoly271.1321
Mean Motion15.49995269
Decay Rate3.838E-05
L11 45264U 98067RH 20094.10917322 .00003838 00000-0 75206-4 0 9997
L22 45264 51.6436 359.7461 0008572 89.0650 271.1321 15.49995269 6814

Live tracking and technical data element details for SORTIE (NORAD 45264). SORTIE can be tracked NOW for your location showing map with azimuth and elevation plus other details from your city location.

Track the satellite on the map from your city or location and see movement details for azimuth, elevation, latitude, longitude, range, height, and movement on the map or in text.







IsCatalogInMostPopularTable: catalog: 45264, numindb: 10
Update: records affected: 1



GetName: 45264 SORTIE

Hit Count: updated at: Sun, 05 Apr 2020 20:37:39 GMT